FW9521 Weather Reports


time (UTC)temp
C
wind
direction
speed
KPH
gust
KPH
rain 1hr
cm
rain 24hr
cm
rain mn
cm
humidity
%
barometer
mb
20260502152051 13 292 4.8 9.7 0.00 0.00 0.00 41 1021.3
20260502151551 13 305 1.6 4.8 0.00 0.00 0.00 42 1021.3
20260502151051 13 227 3.2 8.0 0.00 0.00 0.00 42 1021.3
20260502150551 13 287 4.8 12.9 0.00 0.00 0.00 44 1021.4
20260502130551 5 294 3.2 4.8 0.00 0.00 0.00 76 1021.3
20260502123051 3 322 0.0 0.0 0.00 0.00 0.00 80 1021.4
20260502122551 3 322 0.0 0.0 0.00 0.00 0.00 80 1021.3
20260502121552 2 322 1.6 4.8 0.00 0.00 0.00 80 1021.3
20260502120551 2 299 0.0 0.0 0.00 0.00 0.00 81 1021.2
20260502115551 2 299 0.0 3.2 0.00 0.00 0.00 81 1021.2
20260502115051 2 313 3.2 3.2 0.00 0.00 0.00 80 1021.2
20260502114552 2 307 3.2 4.8 0.00 0.00 0.00 80 1021.2
20260502114052 2 310 3.2 8.0 0.00 0.00 0.00 80 1021.2
20260502113552 2 313 3.2 4.8 0.00 0.00 0.00 80 1021.1
20260502112551 2 312 3.2 4.8 0.00 0.00 0.00 81 1021.1
20260502111552 2 342 0.0 1.6 0.00 0.00 0.00 81 1021.2
20260502110552 2 305 3.2 3.2 0.00 0.00 0.00 80 1021.1
20260502105051 2 309 1.6 3.2 0.00 0.00 0.00 81 1021.0
20260502104552 2 321 3.2 4.8 0.00 0.00 0.00 82 1021.1
20260502104051 2 325 0.0 0.0 0.00 0.00 0.00 81 1021.1
20260502103551 2 325 0.0 0.0 0.00 0.00 0.00 81 1021.1
20260502103052 2 325 0.0 0.0 0.00 0.00 0.00 80 1021.0
20260502102552 2 322 3.2 4.8 0.00 0.00 0.00 80 1021.0
20260502102051 2 268 0.0 0.0 0.00 0.00 0.00 80 1020.9
20260502101551 2 268 0.0 0.0 0.00 0.00 0.00 79 1020.8
20260502101051 3 268 0.0 1.6 0.00 0.00 0.00 79 1020.8
20260502100552 3 344 0.0 3.2 0.00 0.00 0.00 79 1020.8
20260502091052 3 350 0.0 0.0 0.00 0.00 0.00 72 1020.6
20260502090552 3 350 0.0 0.0 0.00 0.00 0.00 70 1020.5
20260502071052 5 350 0.0 0.0 0.00 0.00 0.00 64 1020.5
20260502070552 5 350 0.0 0.0 0.00 0.00 0.00 64 1020.6
20260502070052 5 350 0.0 0.0 0.00 0.00 0.00 64 1020.6
20260502065552 5 350 0.0 0.0 0.00 0.00 0.00 63 1020.6
20260502065052 5 350 0.0 0.0 0.00 0.00 0.00 63 1020.6
20260502064051 5 350 0.0 0.0 0.00 0.00 0.00 63 1020.6
20260502063552 5 350 0.0 0.0 0.00 0.00 0.00 63 1020.6
20260502063051 5 350 0.0 0.0 0.00 0.00 0.00 63 1020.6
20260502062551 5 350 0.0 0.0 0.00 0.00 0.00 63 1020.6
20260502062052 5 350 0.0 0.0 0.00 0.00 0.00 63 1020.6
20260502061052 5 350 0.0 0.0 0.00 0.00 0.00 62 1020.5
20260502060052 5 350 0.0 0.0 0.00 0.00 0.00 62 1020.5
20260502055551 5 350 0.0 0.0 0.00 0.00 0.00 61 1020.4
20260502055052 5 350 0.0 0.0 0.00 0.00 0.00 61 1020.4
20260502054553 6 350 0.0 0.0 0.00 0.00 0.00 61 1020.4
20260502054052 6 350 0.0 0.0 0.00 0.00 0.00 61 1020.3
20260502053552 6 350 0.0 0.0 0.00 0.00 0.00 60 1020.3
20260502053051 6 350 0.0 0.0 0.00 0.00 0.00 60 1020.2
20260502052552 6 350 0.0 0.0 0.00 0.00 0.00 60 1020.2
20260502052052 6 350 0.0 0.0 0.00 0.00 0.00 60 1020.2
20260502051552 6 350 0.0 0.0 0.00 0.00 0.00 60 1020.2
20260502050551 6 350 0.0 0.0 0.00 0.00 0.00 59 1020.2
20260502050052 6 350 0.0 0.0 0.00 0.00 0.00 59 1020.0
20260502045553 6 350 0.0 0.0 0.00 0.00 0.00 59 1020.0
20260502045052 6 350 0.0 0.0 0.00 0.00 0.00 59 1020.0
20260502044552 6 350 0.0 4.8 0.00 0.00 0.00 58 1020.0
20260502044052 7 353 1.6 4.8 0.00 0.00 0.00 59 1020.0
20260502043552 7 326 0.0 0.0 0.00 0.00 0.00 58 1020.0
20260502042552 7 326 1.6 4.8 0.00 0.00 0.00 58 1019.9
20260502042052 7 342 0.0 8.0 0.00 0.00 0.00 57 1019.9
20260502041552 7 358 1.6 4.8 0.00 0.00 0.00 58 1019.9
20260502041052 7 350 0.0 4.8 0.00 0.00 0.00 57 1019.8
20260502040552 7 352 0.0 0.0 0.00 0.00 0.00 57 1019.8
20260502035552 7 352 0.0 4.8 0.00 0.00 0.00 57 1019.7
20260502035052 7 344 1.6 4.8 0.00 0.00 0.00 57 1019.7
20260502034552 7 19 1.6 3.2 0.00 0.00 0.00 57 1019.7
20260502034052 7 14 0.0 0.0 0.00 0.00 0.00 56 1019.6
20260502033052 7 345 1.6 4.8 0.00 0.00 0.00 56 1019.6
20260502032552 7 356 1.6 8.0 0.00 0.00 0.00 56 1019.6
20260502032052 7 346 0.0 8.0 0.00 0.00 0.00 55 1019.5
20260502031552 7 352 1.6 4.8 0.00 0.00 0.00 55 1019.5
20260502031051 8 17 1.6 4.8 0.00 0.00 0.00 54 1019.5
20260502030552 8 355 0.0 4.8 0.00 0.00 0.00 54 1019.5
20260502030052 8 359 0.0 0.0 0.00 0.00 0.00 53 1019.4
20260502025552 8 359 0.0 3.2 0.00 0.00 0.00 52 1019.4
20260502025052 8 5 0.0 3.2 0.00 0.00 0.00 52 1019.3
20260502024552 8 352 1.6 4.8 0.00 0.00 0.00 52 1019.2
20260502024052 9 322 0.0 0.0 0.00 0.00 0.00 51 1019.1
20260502023553 9 325 1.6 4.8 0.00 0.00 0.00 50 1019.1
20260502023052 9 8 0.0 4.8 0.00 0.00 0.00 48 1019.0
20260502022552 9 6 1.6 4.8 0.00 0.00 0.00 48 1019.0
20260502022052 10 7 3.2 8.0 0.00 0.00 0.00 48 1018.9
20260502021552 10 357 3.2 8.0 0.00 0.00 0.00 48 1018.8
20260502021052 10 346 4.8 8.0 0.00 0.00 0.00 47 1018.6
20260502020052 10 349 3.2 11.3 0.00 0.00 0.00 46 1018.5
20260502015052 10 340 1.6 8.0 0.00 0.00 0.00 46 1018.3
20260502014552 11 345 1.6 8.0 0.00 0.00 0.00 44 1018.3
20260502014052 11 3 4.8 11.3 0.00 0.00 0.00 44 1018.3
20260502013552 11 348 1.6 9.7 0.00 0.00 0.00 44 1018.2
20260502013052 11 358 4.8 11.3 0.00 0.00 0.00 44 1018.2
20260502012553 11 339 3.2 8.0 0.00 0.00 0.00 44 1018.1
20260502012052 11 4 4.8 9.7 0.00 0.00 0.00 43 1018.1
20260502011552 12 6 3.2 8.0 0.00 0.00 0.00 41 1018.1
20260502011052 12 351 4.8 11.3 0.00 0.00 0.00 40 1018.1
20260502010552 12 342 8.0 12.9 0.00 0.00 0.00 38 1018.0
20260502005552 12 331 8.0 14.5 0.00 0.00 0.00 37 1017.9
20260502004553 13 349 6.4 16.1 0.00 0.00 0.00 36 1018.0
20260502003552 13 331 11.3 20.9 0.00 0.00 0.00 36 1017.7
20260502003052 13 352 12.9 20.9 0.00 0.00 0.00 35 1017.6
20260502002552 13 337 12.9 19.3 0.00 0.00 0.00 34 1017.6
20260502001553 13 350 11.3 14.5 0.00 0.00 0.00 34 1017.6
20260502000052 14 332 11.3 19.3 0.00 0.00 0.00 32 1017.5
20260501235552 14 345 11.3 14.5 0.00 0.00 0.00 32 1017.5
20260501235052 14 331 14.5 20.9 0.00 0.00 0.00 31 1017.5
20260501234553 14 321 12.9 20.9 0.00 0.00 0.00 32 1017.5
20260501234052 14 324 14.5 24.1 0.00 0.00 0.00 32 1017.5
20260501233553 15 339 11.3 14.5 0.00 0.00 0.00 32 1017.4
20260501232553 14 322 16.1 25.7 0.00 0.00 0.00 32 1017.5
20260501232053 15 331 14.5 24.1 0.00 0.00 0.00 32 1017.4
20260501231553 15 320 14.5 20.9 0.00 0.00 0.00 31 1017.4
20260501231052 15 325 8.0 14.5 0.00 0.00 0.00 30 1017.3
20260501230052 15 311 8.0 19.3 0.00 0.00 0.00 31 1017.4
20260501225553 15 325 11.3 19.3 0.00 0.00 0.00 31 1017.4
20260501225052 15 344 9.7 19.3 0.00 0.00 0.00 32 1017.4
20260501224552 15 322 14.5 22.5 0.00 0.00 0.00 31 1017.3
20260501223552 15 322 14.5 24.1 0.00 0.00 0.00 30 1017.4
20260501223053 15 328 19.3 32.2 0.00 0.00 0.00 30 1017.4
20260501222553 15 321 14.5 20.9 0.00 0.00 0.00 30 1017.4
20260501222053 15 307 8.0 16.1 0.00 0.00 0.00 30 1017.3
20260501221553 15 308 4.8 19.3 0.00 0.00 0.00 31 1017.4
20260501221052 15 347 11.3 20.9 0.00 0.00 0.00 33 1017.5
20260501220552 15 333 17.7 24.1 0.00 0.00 0.00 33 1017.4
20260501220052 15 323 4.8 14.5 0.00 0.00 0.00 33 1017.4
20260501215552 16 335 14.5 24.1 0.00 0.00 0.00 34 1017.4
20260501214553 16 330 9.7 20.9 0.00 0.00 0.00 33 1017.4
20260501214052 16 303 6.4 25.7 0.00 0.00 0.00 33 1017.4
20260501213552 16 318 6.4 14.5 0.00 0.00 0.00 34 1017.4
20260501212553 15 345 8.0 14.5 0.00 0.00 0.00 35 1017.5
20260501212052 15 340 16.1 24.1 0.00 0.00 0.00 34 1017.6
20260501211553 15 339 11.3 20.9 0.00 0.00 0.00 36 1017.5
20260501211053 16 332 9.7 16.1 0.00 0.00 0.00 35 1017.7
20260501210552 15 325 12.9 24.1 0.00 0.00 0.00 35 1017.6
20260501210053 16 327 11.3 20.9 0.00 0.00 0.00 36 1017.7
20260501205552 16 317 6.4 20.9 0.00 0.00 0.00 34 1017.7
20260501205052 16 321 11.3 19.3 0.00 0.00 0.00 36 1017.9
20260501204553 16 294 8.0 14.5 0.00 0.00 0.00 36 1017.9
20260501203553 15 321 11.3 20.9 0.00 0.00 0.00 37 1017.9
20260501203052 15 346 9.7 19.3 0.00 0.00 0.00 38 1017.9
20260501202553 15 333 12.9 19.3 0.00 0.00 0.00 36 1018.0
20260501202052 15 304 8.0 19.3 0.00 0.00 0.00 37 1018.0
20260501201052 15 320 8.0 19.3 0.00 0.00 0.00 40 1018.1
20260501200553 15 336 14.5 22.5 0.00 0.00 0.00 37 1018.1
20260501195552 16 332 6.4 19.3 0.00 0.00 0.00 41 1018.2
20260501195052 16 349 11.3 22.5 0.00 0.00 0.00 40 1018.2
20260501194552 16 325 14.5 20.9 0.00 0.00 0.00 41 1018.1
20260501194053 16 330 8.0 20.9 0.00 0.00 0.00 39 1018.1
20260501193552 15 325 14.5 20.9 0.00 0.00 0.00 39 1018.1
20260501193053 15 333 8.0 22.5 0.00 0.00 0.00 40 1018.1
20260501192553 15 346 4.8 19.3 0.00 0.00 0.00 41 1018.2
20260501192053 15 350 9.7 19.3 0.00 0.00 0.00 41 1018.1
20260501191553 15 327 8.0 19.3 0.00 0.00 0.00 43 1018.2
20260501191052 15 26 16.1 25.7 0.00 0.00 0.00 42 1018.2
20260501190553 15 346 4.8 12.9 0.00 0.00 0.00 42 1018.2
20260501185552 15 358 14.5 24.1 0.00 0.00 0.00 43 1018.3
20260501185052 15 333 8.0 16.1 0.00 0.00 0.00 43 1018.3
20260501184552 15 329 6.4 20.9 0.00 0.00 0.00 41 1018.3
20260501184052 15 315 9.7 20.9 0.00 0.00 0.00 42 1018.3
20260501183553 15 343 6.4 19.3 0.00 0.00 0.00 45 1018.3
20260501183053 15 38 6.4 14.5 0.00 0.00 0.00 46 1018.2
20260501182552 15 345 14.5 24.1 0.00 0.00 0.00 45 1018.4
20260501182052 15 332 8.0 20.9 0.00 0.00 0.00 45 1018.3
20260501181552 15 316 9.7 19.3 0.00 0.00 0.00 45 1018.3
20260501181053 14 325 14.5 27.4 0.00 0.00 0.00 44 1018.5
20260501180552 14 312 6.4 14.5 0.00 0.00 0.00 46 1018.4
20260501180053 13 315 11.3 25.7 0.00 0.00 0.00 46 1018.5
20260501175553 14 327 11.3 20.9 0.00 0.00 0.00 47 1018.5
20260501175053 14 312 9.7 24.1 0.00 0.00 0.00 44 1018.5
20260501174553 14 317 12.9 25.7 0.00 0.00 0.00 49 1018.6
20260501174052 14 316 9.7 25.7 0.00 0.00 0.00 46 1018.6
20260501173053 14 321 9.7 22.5 0.00 0.00 0.00 46 1018.7
20260501172553 14 325 9.7 19.3 0.00 0.00 0.00 47 1018.6
20260501172052 13 323 14.5 24.1 0.00 0.00 0.00 48 1018.7
20260501171053 14 334 12.9 24.1 0.00 0.00 0.00 48 1018.6
20260501170553 13 342 9.7 24.1 0.00 0.00 0.00 50 1018.6
20260501170053 13 329 14.5 22.5 0.00 0.00 0.00 49 1018.7
20260501165553 13 336 8.0 16.1 0.00 0.00 0.00 51 1018.6
20260501165052 13 331 9.7 22.5 0.00 0.00 0.00 50 1018.6
20260501164553 13 340 9.7 20.9 0.00 0.00 0.00 51 1018.6
20260501164052 13 322 16.1 22.5 0.00 0.00 0.00 51 1018.6
20260501163552 13 326 16.1 22.5 0.00 0.00 0.00 50 1018.5
20260501163053 13 324 12.9 20.9 0.00 0.00 0.00 51 1018.5
20260501162553 13 318 12.9 22.5 0.00 0.00 0.00 50 1018.5
20260501162052 13 324 16.1 22.5 0.00 0.00 0.00 51 1018.4
20260501161553 13 314 8.0 22.5 0.00 0.00 0.00 50 1018.4
20260501161053 13 314 14.5 22.5 0.00 0.00 0.00 50 1018.4
20260501160052 13 329 16.1 22.5 0.00 0.00 0.00 51 1018.4
20260501155553 13 323 14.5 24.1 0.00 0.00 0.00 52 1018.4
20260501155053 13 316 19.3 25.7 0.00 0.00 0.00 49 1018.3
20260501154553 13 308 9.7 19.3 0.00 0.00 0.00 50 1018.3
20260501154052 13 321 11.3 19.3 0.00 0.00 0.00 52 1018.2